ARA228 DGAA-DNMM

Flight info

Callsign ARA228
Flight time 0h 42m
Altitude 33000
Route EREKA1D EREKA UL433 TYE TYE1N
Aircraft B737/M-SDE2E3FGHIRWXY/LB1

Departure

Time 2026-05-07 09:01
Airport Kotoka International Airport (DGAA)

Arrival

Time 2026-05-07 09:43
Airport Murtala Muhammed International Airport (DNMM)
Time Latitude Longitude Altitude Speed Heading
2026-05-07 08:59 5.61380 -0.16591 205 ft 39 kts 22°
2026-05-07 09:00 5.61563 -0.16426 206 ft 37 kts 92°
2026-05-07 09:00 5.61374 -0.16372 208 ft 43 kts 202°
2026-05-07 09:00 5.60855 -0.16597 204 ft 118 kts 205°
2026-05-07 09:00 5.59921 -0.16969 457 ft 153 kts 202°
2026-05-07 09:01 5.58961 -0.17363 1287 ft 146 kts 204°
2026-05-07 09:01 5.57997 -0.17750 1916 ft 157 kts 201°
2026-05-07 09:01 5.57206 -0.18036 2208 ft 177 kts 193°
2026-05-07 09:01 5.55872 -0.17941 2499 ft 210 kts 161°
2026-05-07 09:02 5.54608 -0.17054 2757 ft 237 kts 128°
2026-05-07 09:02 5.54027 -0.15492 3310 ft 245 kts 97°
2026-05-07 09:02 5.53899 -0.13785 3994 ft 246 kts 94°
2026-05-07 09:02 5.53798 -0.12063 4678 ft 248 kts 94°
2026-05-07 09:03 5.53703 -0.10334 5354 ft 248 kts 94°
2026-05-07 09:03 5.53710 -0.08629 6030 ft 249 kts 81°
2026-05-07 09:03 5.54272 -0.06966 6707 ft 249 kts 66°
2026-05-07 09:03 5.55037 -0.05410 7351 ft 249 kts 65°
2026-05-07 09:04 5.55811 -0.03885 7981 ft 248 kts 65°
2026-05-07 09:04 5.56595 -0.02345 8635 ft 247 kts 65°
2026-05-07 09:04 5.57373 -0.00809 9277 ft 247 kts 65°
2026-05-07 09:04 5.58148 0.00724 9904 ft 247 kts 65°
2026-05-07 09:05 5.58924 0.02266 10455 ft 249 kts 65°
2026-05-07 09:05 5.59709 0.03828 10960 ft 252 kts 65°
2026-05-07 09:05 5.60501 0.05407 11461 ft 255 kts 65°
2026-05-07 09:05 5.61300 0.07002 11979 ft 257 kts 65°
2026-05-07 09:06 5.62105 0.08611 12489 ft 259 kts 65°
2026-05-07 09:06 5.62923 0.10247 13006 ft 264 kts 65°
2026-05-07 09:06 5.63767 0.11936 13230 ft 281 kts 65°
2026-05-07 09:06 5.64678 0.13763 13372 ft 305 kts 65°
2026-05-07 09:07 5.65665 0.15741 13547 ft 328 kts 65°
2026-05-07 09:07 5.66723 0.17859 13741 ft 350 kts 65°
2026-05-07 09:07 5.67842 0.20096 14017 ft 365 kts 65°
2026-05-07 09:07 5.68993 0.22397 14489 ft 372 kts 65°
2026-05-07 09:08 5.70160 0.24730 15060 ft 376 kts 65°
2026-05-07 09:08 5.71340 0.27090 15617 ft 380 kts 65°
2026-05-07 09:08 5.72533 0.29479 16139 ft 385 kts 65°
2026-05-07 09:08 5.73723 0.31861 16652 ft 389 kts 64°
2026-05-07 09:09 5.74984 0.34284 17160 ft 394 kts 63°
2026-05-07 09:09 5.76294 0.36720 17655 ft 398 kts 63°
2026-05-07 09:09 5.77630 0.39180 18144 ft 403 kts 63°
2026-05-07 09:09 5.78980 0.41667 18563 ft 407 kts 63°
2026-05-07 09:10 5.80336 0.44174 19007 ft 409 kts 63°
2026-05-07 09:10 5.81695 0.46695 19441 ft 412 kts 63°
2026-05-07 09:10 5.83065 0.49241 19856 ft 415 kts 63°
2026-05-07 09:10 5.84443 0.51808 20273 ft 418 kts 63°
2026-05-07 09:11 5.85829 0.54391 20668 ft 421 kts 63°
2026-05-07 09:11 5.87207 0.56959 21054 ft 424 kts 63°
2026-05-07 09:11 5.88628 0.59609 21445 ft 427 kts 63°
2026-05-07 09:11 5.90022 0.62209 21819 ft 429 kts 63°
2026-05-07 09:12 5.91441 0.64855 22191 ft 432 kts 63°
2026-05-07 09:12 5.92873 0.67525 22536 ft 435 kts 63°
2026-05-07 09:12 5.94311 0.70209 22886 ft 437 kts 63°
2026-05-07 09:12 5.95757 0.72906 23217 ft 440 kts 63°
2026-05-07 09:13 5.97213 0.75623 23527 ft 443 kts 63°
2026-05-07 09:13 5.98673 0.78356 23785 ft 445 kts 64°
2026-05-07 09:13 5.99945 0.81192 24058 ft 445 kts 70°
2026-05-07 09:13 6.01026 0.84115 24343 ft 446 kts 72°
2026-05-07 09:14 6.02050 0.87057 24613 ft 447 kts 72°
2026-05-07 09:14 6.03090 0.90011 24861 ft 449 kts 71°
2026-05-07 09:14 6.04163 0.92967 25111 ft 451 kts 71°
2026-05-07 09:14 6.05258 0.95905 25358 ft 453 kts 70°
2026-05-07 09:15 6.06373 0.98872 25609 ft 454 kts 70°
2026-05-07 09:15 6.07516 1.01832 25843 ft 456 kts 69°
2026-05-07 09:15 6.08745 1.04729 26076 ft 457 kts 67°
2026-05-07 09:15 6.10040 1.07659 26309 ft 459 kts 67°
2026-05-07 09:16 6.11341 1.10590 26532 ft 460 kts 67°
2026-05-07 09:16 6.12633 1.13531 26750 ft 461 kts 67°
2026-05-07 09:16 6.13919 1.16493 26967 ft 462 kts 68°
2026-05-07 09:16 6.15200 1.19464 27161 ft 464 kts 68°
2026-05-07 09:17 6.16481 1.22441 27374 ft 465 kts 68°
2026-05-07 09:17 6.17751 1.25433 27568 ft 466 kts 70°
2026-05-07 09:17 6.18737 1.28532 27709 ft 467 kts 78°
2026-05-07 09:17 6.19303 1.31744 27889 ft 467 kts 82°
2026-05-07 09:18 6.19791 1.34980 28071 ft 468 kts 82°
2026-05-07 09:18 6.20268 1.38221 28215 ft 470 kts 82°
2026-05-07 09:18 6.20755 1.41473 28374 ft 471 kts 82°
2026-05-07 09:18 6.21255 1.44725 28592 ft 471 kts 81°
2026-05-07 09:19 6.21765 1.47970 28872 ft 470 kts 81°
2026-05-07 09:19 6.22280 1.51204 29160 ft 468 kts 81°
2026-05-07 09:19 6.22797 1.54439 29436 ft 468 kts 81°
2026-05-07 09:19 6.23306 1.57619 29683 ft 467 kts 81°
2026-05-07 09:20 6.23821 1.60843 29967 ft 467 kts 81°
2026-05-07 09:20 6.24334 1.64060 30231 ft 466 kts 81°
2026-05-07 09:20 6.24847 1.67281 30446 ft 466 kts 81°
2026-05-07 09:20 6.25360 1.70503 30658 ft 467 kts 81°
2026-05-07 09:21 6.25873 1.73728 30892 ft 467 kts 81°
2026-05-07 09:21 6.26386 1.76953 30937 ft 469 kts 81°
2026-05-07 09:21 6.27412 1.83425 30951 ft 468 kts 81°
2026-05-07 09:22 6.28429 1.89870 30950 ft 466 kts 81°
2026-05-07 09:22 6.29442 1.96300 30953 ft 465 kts 81°
2026-05-07 09:23 6.30454 2.02727 30948 ft 465 kts 81°
2026-05-07 09:23 6.31464 2.09141 30954 ft 464 kts 81°
2026-05-07 09:24 6.32472 2.15550 30958 ft 464 kts 81°
2026-05-07 09:24 6.33481 2.21971 30961 ft 465 kts 81°
2026-05-07 09:25 6.34478 2.28323 30949 ft 454 kts 81°
2026-05-07 09:25 6.34961 2.31395 30944 ft 436 kts 81°
2026-05-07 09:25 6.35424 2.34348 30863 ft 421 kts 81°
2026-05-07 09:26 6.35893 2.37229 30546 ft 414 kts 77°
2026-05-07 09:26 6.36855 2.39937 30052 ft 412 kts 61°
2026-05-07 09:26 6.38496 2.42313 29031 ft 419 kts 52°
2026-05-07 09:26 6.40394 2.44607 27679 ft 434 kts 50°
2026-05-07 09:27 6.42394 2.46937 26369 ft 446 kts 50°
2026-05-07 09:27 6.44448 2.49324 25111 ft 456 kts 50°
2026-05-07 09:27 6.48619 2.54245 22724 ft 466 kts 51°
2026-05-07 09:28 6.50691 2.56725 21805 ft 460 kts 51°
2026-05-07 09:28 6.52726 2.59173 21030 ft 451 kts 51°
2026-05-07 09:28 6.54719 2.61574 20247 ft 444 kts 51°
2026-05-07 09:28 6.56687 2.63947 19438 ft 438 kts 51°
2026-05-07 09:29 6.58628 2.66289 18630 ft 433 kts 51°
2026-05-07 09:29 6.60547 2.68602 17796 ft 428 kts 51°
2026-05-07 09:29 6.62437 2.70880 17014 ft 421 kts 52°
2026-05-07 09:29 6.64295 2.73119 16272 ft 413 kts 52°
2026-05-07 09:30 6.66114 2.75313 15532 ft 406 kts 52°
2026-05-07 09:30 6.67910 2.77477 14796 ft 399 kts 52°
2026-05-07 09:30 6.69664 2.79612 14106 ft 392 kts 54°
2026-05-07 09:30 6.70963 2.81903 13774 ft 373 kts 70°
2026-05-07 09:31 6.71744 2.84319 13642 ft 353 kts 74°
2026-05-07 09:31 6.72426 2.86625 13520 ft 335 kts 75°
2026-05-07 09:31 6.73069 2.88823 13408 ft 319 kts 75°
2026-05-07 09:31 6.73687 2.90916 13310 ft 305 kts 75°
2026-05-07 09:32 6.74281 2.92910 13217 ft 291 kts 74°
2026-05-07 09:32 6.74853 2.94816 13127 ft 278 kts 75°
2026-05-07 09:32 6.75405 2.96646 12910 ft 270 kts 74°
2026-05-07 09:32 6.75949 2.98445 12552 ft 268 kts 74°
2026-05-07 09:33 6.76492 3.00237 12182 ft 267 kts 74°
2026-05-07 09:33 6.77031 3.02017 11845 ft 265 kts 74°
2026-05-07 09:33 6.77568 3.03784 11501 ft 263 kts 74°
2026-05-07 09:33 6.78101 3.05538 11167 ft 261 kts 74°
2026-05-07 09:34 6.78624 3.07262 10850 ft 259 kts 74°
2026-05-07 09:34 6.79149 3.08990 10519 ft 257 kts 74°
2026-05-07 09:34 6.79667 3.10695 10141 ft 253 kts 74°
2026-05-07 09:34 6.80173 3.12360 9633 ft 252 kts 74°
2026-05-07 09:35 6.80686 3.14051 9018 ft 253 kts 74°
2026-05-07 09:35 6.81204 3.15756 8443 ft 255 kts 74°
2026-05-07 09:35 6.81721 3.17458 7918 ft 254 kts 74°
2026-05-07 09:35 6.82217 3.19170 7351 ft 255 kts 79°
2026-05-07 09:36 6.82367 3.20950 6800 ft 256 kts 89°
2026-05-07 09:36 6.82371 3.22139 6448 ft 257 kts 90°
2026-05-07 09:36 6.82369 3.23931 6054 ft 252 kts 90°
2026-05-07 09:36 6.82379 3.25653 5810 ft 242 kts 90°
2026-05-07 09:37 6.82397 3.27321 5573 ft 232 kts 90°
2026-05-07 09:37 6.82252 3.28897 5276 ft 224 kts 112°
2026-05-07 09:37 6.81403 3.30148 4986 ft 217 kts 141°
2026-05-07 09:37 6.80097 3.30872 4638 ft 214 kts 165°
2026-05-07 09:38 6.78626 3.31057 4283 ft 212 kts 178°
2026-05-07 09:38 6.77150 3.31079 3904 ft 212 kts 179°
2026-05-07 09:38 6.75679 3.31090 3609 ft 209 kts 179°
2026-05-07 09:38 6.74280 3.31106 3445 ft 191 kts 179°
2026-05-07 09:39 6.73009 3.31125 3253 ft 176 kts 179°
2026-05-07 09:39 6.71842 3.31144 3058 ft 165 kts 179°
2026-05-07 09:39 6.70729 3.31163 2823 ft 156 kts 180°
2026-05-07 09:39 6.69691 3.31182 2653 ft 139 kts 180°
2026-05-07 09:40 6.68754 3.31209 2341 ft 135 kts 179°
2026-05-07 09:40 6.67826 3.31241 1981 ft 133 kts 180°
2026-05-07 09:40 6.66892 3.31257 1563 ft 135 kts 179°
2026-05-07 09:40 6.65964 3.31264 1401 ft 136 kts 182°
2026-05-07 09:41 6.65029 3.31262 1303 ft 135 kts 181°
2026-05-07 09:41 6.64101 3.31264 1156 ft 133 kts 181°
2026-05-07 09:41 6.63154 3.31269 967 ft 137 kts 180°
2026-05-07 09:41 6.62201 3.31274 766 ft 137 kts 180°
2026-05-07 09:42 6.61248 3.31284 566 ft 137 kts 181°
2026-05-07 09:42 6.60313 3.31294 394 ft 132 kts 180°
2026-05-07 09:42 6.59401 3.31307 224 ft 132 kts 180°
2026-05-07 09:42 6.58465 3.31319 85 ft 137 kts 180°
2026-05-07 09:43 6.57584 3.31323 56 ft 111 kts 179°
2026-05-07 09:43 6.57172 3.31330 64 ft 70 kts 179°
2026-05-07 09:43 6.56996 3.31332 66 ft 8 kts 179°
2026-05-07 09:43 6.56990 3.31333 66 ft 1 kts 179°
2026-05-07 09:44 6.56941 3.31333 68 ft 18 kts 179°
2026-05-07 09:44 6.56829 3.31335 68 ft 17 kts 178°
2026-05-07 09:44 6.56629 3.31352 66 ft 36 kts 167°
2026-05-07 09:44 6.56415 3.31456 64 ft 22 kts 134°
2026-05-07 09:45 6.56453 3.31545 63 ft 15 kts 11°
2026-05-07 09:45 6.56558 3.31543 68 ft 15 kts 359°
2026-05-07 09:45 6.56656 3.31541 65 ft 14 kts 359°
2026-05-07 09:45 6.56751 3.31539 69 ft 13 kts 358°
2026-05-07 09:46 6.56841 3.31538 70 ft 13 kts
2026-05-07 09:46 6.56929 3.31540 69 ft 13 kts
2026-05-07 09:46 6.57015 3.31539 67 ft 12 kts 359°
2026-05-07 09:46 6.57099 3.31537 66 ft 12 kts 359°
2026-05-07 09:47 6.57181 3.31535 64 ft 12 kts 359°
2026-05-07 09:47 6.57260 3.31533 62 ft 11 kts 359°
2026-05-07 09:47 6.57338 3.31532 61 ft 11 kts 359°
2026-05-07 09:47 6.57413 3.31532 60 ft 11 kts
2026-05-07 09:48 6.57486 3.31532 58 ft 10 kts
2026-05-07 09:48 6.57557 3.31532 57 ft 10 kts 359°
2026-05-07 09:48 6.57626 3.31531 57 ft 10 kts 359°
2026-05-07 09:48 6.57693 3.31530 56 ft 10 kts 359°
2026-05-07 09:49 6.57758 3.31530 57 ft 9 kts
2026-05-07 09:49 6.57822 3.31528 57 ft 9 kts 358°
2026-05-07 09:49 6.57884 3.31527 58 ft 9 kts 359°
2026-05-07 09:49 6.57943 3.31527 59 ft 9 kts
2026-05-07 09:50 6.58001 3.31528 59 ft 8 kts
2026-05-07 09:50 6.58047 3.31559 60 ft 8 kts 56°
2026-05-07 09:50 6.58071 3.31608 67 ft 8 kts 64°
2026-05-07 09:50 6.58093 3.31657 71 ft 7 kts 68°
2026-05-07 09:51 6.58111 3.31704 86 ft 7 kts 69°
2026-05-07 09:51 6.58115 3.31751 90 ft 7 kts 121°
2026-05-07 09:51 6.58077 3.31781 94 ft 7 kts 154°
2026-05-07 09:51 6.58034 3.31801 93 ft 7 kts 156°
2026-05-07 09:52 6.57991 3.31820 93 ft 7 kts 156°
2026-05-07 09:52 6.57972 3.31851 94 ft 4 kts 71°
2026-05-07 09:52 6.57986 3.31872 94 ft 4 kts 61°
2026-05-07 09:52 6.57997 3.31895 94 ft 4 kts 65°
2026-05-07 09:53 6.58005 3.31913 94 ft 0 kts 66°
2026-05-07 10:11 6.58004 3.31913 93 ft 0 kts 66°